Location: Pitton
(51.0667°N, 1.7000°W)
Time: 10:42:09
(UTC+00:00)

USA 267 - Pass Details

Date: 17 September 2019
Orbit: 1102 x 1106 km, 123.0° (Epoch: 08 October)

Event Time Altitude Azimuth Distance (km) Brightness Sun altitude
Rises 23:42:19 0° 59° (ENE) 3,927 6.4 -36.7°
Reaches altitude 10° 23:44:48 10° 60° (ENE) 2,968 5.7 -36.8°
Enters shadow 23:48:11 34° 60° (ENE) 1,745 4.4 -36.8°
